Temp
-1 -1 -1 -0 -0 -0 -1 -1 -1 -1 0 1 1 1 1 1 2 2 3 3 3 4 3 4 4 4 4 4 4 4 4 5 5 5 5 5 5 5
-2 -2 -1 -2 -1 -1 -1 -1 -2 -0 0 1 1 1 1 2 2 1 2 3 3 3 3 3 3 3 3 4 4 4 4 4 4 5 5 5 5 5
-3 -3 -2 -2 -1 -1 -1 -1 -1 -1 -0 0 1 1 1 1 1 2 2 2 2 2 3 3 3 3 3 3 3 4 4 4 4 4 4 4 5 5
-3 -3 -3 -3 -2 -2 -2 -1 -1 -1 -1 -0 0 1 1 1 1 2 2 2 2 2 2 2 2 2 3 3 3 3 3 4 4 4 4 4 4 4
-4 -3 -3 -3 -3 -3 -2 -2 -2 -2 -1 -1 -1 -1 -0 0 1 1 1 1 1 2 2 2 2 2 2 2 2 3 3 3 3 3 4 3 4 4
-4 -4 -4 -4 -4 -4 -4 -3 -3 -3 -2 -2 -2 -2 -1 -1 -1 -0 -0 0 1 1 1 1 1 1 2 2 2 2 3 3 3 3 3 3 3 3
-6 -5 -5 -5 -5 -4 -4 -4 -4 -4 -3 -3 -2 -2 -2 -2 -2 -2 -1 -1 -1 -1 -0 0 0 0 1 1 1 2 2 2 2 2 2 2 3 3
-8 -7 -7 -7 -7 -6 -6 -5 -5 -5 -4 -4 -4 -4 -4 -3 -3 -3 -2 -2 -2 -2 -1 -2 -1 -2 -1 -1 -0 0 0 0 1 1 1 1 2 2
-9 -9 -9 -8 -8 -8 -7 -7 -7 -7 -6 -6 -6 -5 -5 -5 -4 -4 -3 -3 -3 -3 -2 -2 -2 -2 -2 -2 -1 -1 -1 -1 -0 -0 0 0 1 1
-10 -10 -10 -10 -9 -9 -9 -8 -8 -8 -7 -7 -7 -6 -6 -6 -5 -5 -5 -4 -4 -4 -4 -2 -2 -2 -2 -2 -2 -2 -2 -1 -1 -1 -0 -0 -0 0
-11 -11 -11 -10 -10 -10 -10 -10 -10 -9 -9 -8 -8 -7 -7 -7 -6 -6 -5 -5 -4 -5 -4 -3 -3 -2 -3 -3 -2 -3 -3 -2 -2 -2 -2 -1 -1 -1
-12 -12 -12 -12 -12 -11 -11 -11 -10 -10 -10 -10 -9 -9 -9 -8 -8 -7 -7 -7 -6 -6 -6 -5 -4 -4 -3 -3 -4 -4 -4 -4 -3 -3 -2 -2 -2 -2
-12 -13 -13 -13 -12 -12 -12 -12 -11 -11 -11 -10 -10 -10 -10 -9 -9 -9 -8 -8 -8 -7 -7 -6 -6 -6 -5 -3 -4 -6 -5 -5 -5 -4 -4 -3 -3 -3
-13 -13 -13 -13 -13 -13 -13 -12 -12 -12 -12 -11 -11 -11 -11 -10 -10 -10 -10 -10 -9 -9 -8 -8 -7 -7 -6 -5 -5 -5 -7 -6 -5 -5 -4 -4 -4 -4
-13 -13 -13 -13 -13 -13 -13 -13 -13 -13 -13 -13 -12 -12 -12 -11 -11 -11 -11 -11 -10 -10 -10 -9 -8 -8 -7 -7 -6 -7 -6 -6 -6 -6 -5 -5 -5 -4
-13 -13 -14 -14 -14 -14 -14 -14 -14 -14 -14 -14 -13 -13 -13 -12 -12 -12 -11 -11 -11 -11 -10 -10 -10 -9 -9 -8 -8 -8 -8 -6 -6 -7 -5 -5 -5 -5
-14 -14 -14 -14 -13 -14 -14 -14 -14 -14 -14 -14 -14 -14 -14 -13 -13 -13 -12 -12 -12 -11 -11 -11 -10 -10 -10 -9 -9 -9 -8 -8 -7 -7 -6 -5 -6 -5
-15 -15 -15 -14 -14 -15 -15 -15 -15 -15 -15 -15 -14 -14 -14 -14 -13 -13 -13 -13 -12 -12 -12 -11 -11 -11 -11 -11 -10 -10 -9 -8 -8 -8 -7 -6 -6 -6
-15 -15 -15 -15 -15 -15 -16 -15 -15 -15 -15 -15 -15 -15 -14 -14 -14 -14 -14 -13 -13 -13 -13 -12 -11 -11 -11 -10 -11 -11 -10 -9 -9 -9 -8 -7 -7 -7
-16 -16 -16 -16 -16 -16 -16 -16 -16 -16 -16 -16 -15 -15 -15 -15 -15 -15 -15 -14 -14 -14 -13 -13 -12 -12 -11 -11 -10 -11 -10 -9 -9 -9 -8 -8 -8 -8
-17 -17 -17 -17 -17 -17 -17 -17 -17 -17 -17 -17 -16 -16 -16 -16 -16 -16 -16 -15 -15 -15 -15 -14 -14 -13 -13 -12 -11 -11 -11 -10 -10 -9 -9 -8 -8 -8
-18 -19 -18 -18 -18 -18 -18 -18 -18 -17 -18 -17 -17 -17 -17 -17 -17 -17 -17 -17 -17 -16 -16 -16 -15 -15 -14 -13 -13 -12 -11 -11 -12 -12 -10 -9 -8 -7
-20 -21 -20 -20 -19 -19 -19 -19 -19 -18 -18 -18 -18 -18 -19 -19 -18 -18 -18 -18 -18 -17 -17 -17 -17 -16 -16 -15 -14 -13 -13 -12 -11 -12 -13 -11 -11 -10
Height
3087 3087 3089 3093 3095 3098 3101 3106 3110 3112 3113 3115 3118 3119 3121 3123 3126 3127 3128 3129 3129 3129 3129 3128 3130 3130 3131 3131 3131 3131 3132 3131 3131 3130 3130 3130 3130 3130
3080 3082 3082 3085 3089 3091 3093 3096 3100 3103 3105 3107 3109 3111 3113 3115 3117 3119 3119 3121 3120 3120 3121 3121 3120 3120 3120 3121 3122 3121 3122 3122 3122 3121 3122 3122 3121 3120
3072 3075 3076 3078 3081 3086 3085 3091 3092 3093 3095 3099 3102 3103 3105 3106 3107 3108 3109 3110 3110 3110 3111 3112 3111 3111 3111 3110 3112 3111 3112 3112 3112 3111 3111 3111 3111 3111
3066 3067 3069 3071 3075 3077 3080 3082 3085 3086 3087 3089 3090 3092 3093 3095 3096 3097 3098 3099 3099 3100 3101 3101 3102 3101 3101 3101 3101 3101 3101 3100 3101 3101 3100 3101 3099 3098
3058 3061 3062 3065 3066 3069 3071 3074 3076 3078 3079 3079 3081 3081 3082 3084 3086 3088 3088 3089 3090 3090 3090 3090 3090 3090 3090 3091 3091 3090 3090 3089 3090 3089 3089 3089 3087 3086
3051 3053 3055 3058 3060 3062 3064 3067 3067 3069 3070 3070 3072 3072 3073 3074 3075 3076 3077 3078 3078 3079 3080 3080 3079 3079 3078 3079 3079 3079 3079 3078 3078 3077 3077 3076 3075 3073
3043 3044 3047 3050 3052 3054 3056 3058 3059 3060 3060 3061 3061 3062 3064 3065 3065 3066 3066 3068 3068 3068 3067 3068 3069 3069 3067 3067 3066 3066 3065 3065 3065 3063 3063 3062 3061 3060
3036 3037 3040 3042 3044 3045 3048 3048 3049 3050 3050 3051 3052 3053 3053 3054 3055 3055 3055 3056 3058 3057 3057 3061 3058 3057 3057 3055 3054 3053 3053 3052 3050 3050 3049 3048 3046 3045
3028 3030 3032 3033 3034 3036 3038 3039 3039 3040 3040 3041 3043 3042 3044 3042 3044 3045 3044 3044 3044 3046 3045 3049 3049 3048 3046 3045 3043 3041 3040 3039 3037 3036 3034 3033 3032 3031
3020 3021 3022 3024 3026 3028 3028 3029 3030 3030 3030 3031 3032 3033 3032 3033 3033 3034 3034 3033 3032 3034 3032 3033 3034 3036 3034 3033 3031 3029 3028 3026 3024 3022 3021 3020 3018 3016
3011 3013 3014 3016 3016 3017 3018 3020 3021 3021 3020 3021 3022 3022 3021 3022 3022 3023 3021 3022 3022 3024 3021 3018 3019 3020 3022 3020 3018 3016 3015 3012 3010 3009 3007 3005 3004 3001
3001 3003 3004 3006 3007 3009 3009 3011 3012 3010 3011 3012 3012 3011 3011 3011 3011 3011 3012 3011 3010 3011 3009 3008 3007 3004 3006 3008 3007 3004 3002 2999 2997 2995 2994 2992 2990 2987
2992 2994 2994 2995 2997 2999 3000 3002 3002 3003 3003 3002 3002 3002 3001 3001 3002 3002 3001 3001 3000 2998 2996 2993 2995 2993 2990 2988 2993 2994 2990 2989 2986 2984 2982 2979 2977 2974
2982 2984 2985 2986 2988 2989 2990 2991 2992 2992 2993 2993 2994 2993 2993 2993 2992 2991 2991 2991 2990 2988 2986 2983 2982 2982 2980 2978 2975 2979 2979 2978 2975 2974 2971 2969 2967 2964
2973 2974 2975 2976 2978 2979 2981 2982 2983 2984 2985 2986 2986 2986 2986 2985 2984 2984 2983 2982 2980 2978 2976 2974 2973 2971 2970 2968 2966 2968 2960 2966 2964 2961 2959 2958 2956 2953
2962 2964 2965 2966 2968 2971 2973 2973 2974 2976 2977 2977 2978 2978 2978 2977 2976 2975 2974 2973 2971 2969 2966 2965 2964 2962 2961 2959 2956 2955 2953 2948 2947 2948 2947 2945 2944 2940
2948 2951 2953 2956 2960 2962 2964 2965 2966 2967 2968 2969 2969 2969 2969 2968 2967 2966 2965 2964 2962 2961 2959 2957 2954 2953 2951 2948 2947 2942 2940 2938 2934 2932 2933 2935 2936 2930
2934 2939 2943 2946 2950 2953 2954 2955 2956 2958 2958 2959 2959 2960 2960 2959 2959 2957 2956 2955 2953 2951 2949 2948 2946 2945 2942 2941 2936 2934 2931 2927 2927 2925 2921 2921 2926 2921
2922 2927 2931 2935 2939 2941 2942 2944 2946 2947 2949 2949 2950 2950 2950 2950 2950 2949 2948 2946 2945 2943 2940 2939 2937 2935 2933 2932 2932 2925 2921 2920 2916 2916 2911 2910 2909 2911
2912 2915 2920 2924 2927 2929 2931 2933 2935 2938 2939 2940 2941 2941 2941 2941 2940 2939 2938 2937 2936 2934 2932 2929 2927 2925 2923 2921 2920 2921 2912 2907 2906 2906 2903 2901 2899 2898
2902 2904 2910 2912 2915 2917 2920 2923 2925 2927 2929 2930 2931 2932 2932 2932 2931 2930 2929 2928 2927 2925 2923 2920 2918 2915 2913 2911 2909 2910 2908 2898 2894 2892 2892 2890 2889 2889
2893 2895 2900 2902 2905 2907 2910 2913 2916 2918 2920 2921 2922 2923 2923 2923 2922 2921 2920 2919 2917 2915 2914 2912 2909 2906 2904 2901 2900 2898 2899 2897 2890 2884 2880 2878 2876 2874
2885 2888 2891 2894 2896 2898 2901 2904 2907 2909 2911 2912 2913 2914 2914 2914 2914 2913 2912 2910 2909 2907 2905 2904 2901 2898 2895 2893 2890 2889 2888 2887 2886 2884 2876 2870 2867 2863
Wind_Speed
25 22 25 26 20 20 20 19 20 22 26 26 28 28 29 33 34 32 34 35 34 35 35 35 36 34 35 34 34 34 34 33 33 33 34 34 33 33
27 25 24 25 25 25 26 28 28 29 28 30 33 34 33 35 36 36 37 38 37 38 39 38 37 37 36 37 37 37 36 36 36 37 37 37 37 37
26 27 27 29 31 33 31 33 34 35 36 38 39 39 41 41 39 39 39 39 38 39 38 38 38 38 38 38 39 38 38 39 39 39 39 40 39 40
28 28 30 32 34 34 34 35 36 37 38 41 42 42 42 41 42 42 43 42 41 40 39 39 40 39 40 40 40 40 40 41 41 41 41 41 42 42
28 30 31 31 32 34 35 36 37 37 38 40 41 41 41 42 43 44 42 42 42 41 41 41 41 41 41 41 41 42 42 42 42 42 43 44 44 45
29 30 31 32 33 33 34 35 36 37 38 40 41 39 40 42 42 42 42 43 42 42 42 42 42 43 43 43 43 44 44 44 44 45 45 46 47 47
30 31 31 32 32 33 35 35 35 37 38 39 39 40 41 41 42 42 43 42 42 44 44 44 45 45 44 45 46 46 46 46 47 46 47 48 49 49
30 30 30 30 30 31 33 34 35 36 37 37 37 38 39 41 42 42 43 43 42 42 45 40 46 44 45 46 47 47 47 47 47 48 49 50 51 52
30 30 30 30 30 31 32 32 32 33 35 36 36 37 38 41 42 42 42 44 44 41 46 44 42 43 43 45 46 47 48 48 49 50 51 52 53 55
32 32 32 32 32 32 33 33 34 36 37 37 37 38 39 39 42 42 42 43 44 43 45 47 44 43 43 44 46 46 48 49 51 52 54 55 55 54
37 37 37 38 38 38 37 36 36 37 38 39 39 40 41 41 42 43 43 45 45 45 46 48 48 47 45 45 46 47 47 49 50 51 51 51 50 50
32 32 33 33 34 36 36 36 36 37 37 37 39 40 40 40 41 42 43 43 45 45 45 48 48 50 50 44 42 40 43 45 46 47 47 47 47 48
34 32 33 34 33 33 34 32 33 33 33 34 34 35 36 37 37 38 38 39 40 41 42 45 43 43 46 50 41 35 38 38 40 41 42 43 44 45
31 31 33 34 34 33 32 31 31 31 30 30 31 32 33 34 35 36 36 37 37 38 38 41 42 41 42 42 45 39 33 34 36 36 38 38 39 41
32 30 31 33 33 32 29 29 29 29 28 27 27 27 28 28 30 31 32 33 33 35 36 37 38 39 39 39 41 36 42 33 32 33 34 34 34 37
39 35 35 35 33 30 28 29 29 29 28 27 26 25 25 25 25 26 27 29 30 32 34 35 36 37 37 37 39 37 36 39 35 31 32 31 30 35
42 42 41 39 35 31 32 32 31 29 28 29 28 28 28 28 28 27 27 27 28 29 30 32 34 35 36 37 36 37 37 36 38 35 32 32 28 32
39 40 42 41 37 33 35 35 34 34 33 32 32 32 31 31 31 31 30 31 31 31 32 33 34 34 35 34 37 36 37 39 36 35 35 34 25 28
39 37 37 38 37 35 36 36 35 35 34 33 32 32 32 32 32 33 33 33 33 33 34 35 35 36 36 35 31 34 37 36 38 34 35 32 30 24
36 36 33 33 35 36 36 35 34 33 32 32 31 31 31 31 32 32 32 32 33 33 34 36 36 36 37 37 34 26 35 39 36 34 32 29 28 25
32 32 28 31 34 35 35 34 32 31 30 30 30 30 30 30 31 31 32 33 33 33 32 33 35 36 36 36 35 29 26 37 39 35 32 29 26 21
28 23 24 29 32 32 32 31 30 29 29 28 27 28 28 29 30 30 31 31 31 32 31 32 33 34 35 36 35 32 25 26 32 33 34 31 29 27
27 23 20 25 28 29 29 28 27 26 25 25 26 26 27 28 28 28 29 29 29 30 30 30 30 31 33 34 35 32 27 24 25 22 29 31 30 30
Wind_Direction
241 242 247 248 246 249 253 274 264 262 260 261 260 257 256 256 264 264 262 265 264 265 266 266 265 264 264 265 265 265 265 266 267 268 269 270 272 273
236 232 232 232 236 239 240 241 249 256 260 262 265 266 262 262 261 260 263 262 263 264 265 265 264 264 264 264 265 265 266 266 266 267 268 269 270 271
244 241 238 237 238 243 239 244 243 246 248 250 256 259 264 264 266 264 264 266 265 264 264 266 266 265 265 265 266 266 266 266 267 267 268 270 271 272
247 247 247 246 246 246 249 247 246 247 249 250 253 256 258 259 261 264 264 264 265 266 266 267 267 267 267 268 268 268 268 268 269 269 270 271 270 270
248 249 249 249 251 253 253 254 253 253 252 253 253 254 257 258 258 259 262 265 266 267 267 267 268 268 268 269 269 268 269 270 270 270 271 271 272 273
251 251 252 253 253 253 254 255 255 256 256 256 256 257 257 258 259 260 262 263 265 267 267 268 269 269 269 269 270 270 270 270 271 272 272 272 272 273
252 253 253 254 255 256 257 258 258 258 258 258 259 260 261 261 262 263 264 263 265 268 269 270 269 272 272 271 270 271 272 273 273 274 274 274 275 275
253 253 254 255 255 255 257 258 259 261 261 262 263 264 265 266 266 266 267 266 264 269 268 270 272 272 273 275 276 276 276 278 278 278 279 279 279 278
253 254 254 255 257 258 259 261 261 262 264 266 267 268 268 268 269 273 274 272 272 272 270 268 269 271 272 274 276 277 279 279 280 280 280 280 281 282
254 256 258 259 259 259 260 262 264 265 265 267 268 269 270 271 272 274 275 275 276 277 277 276 274 274 274 275 276 277 279 280 280 280 281 281 281 282
255 256 257 259 261 263 264 268 269 268 269 271 272 273 274 275 276 276 276 277 277 279 279 278 278 277 276 276 277 278 279 278 278 278 279 279 281 282
258 258 257 257 259 261 263 265 268 270 272 273 273 274 275 276 276 276 277 278 278 279 279 278 279 280 277 275 276 277 277 277 278 279 279 280 281 282
256 257 258 258 259 262 265 267 269 271 272 273 275 276 277 277 278 278 278 279 279 280 281 280 279 280 280 280 277 276 275 274 275 277 280 281 282 283
258 256 256 258 258 260 263 266 268 270 271 273 274 275 277 278 279 280 280 281 281 282 281 282 282 281 280 280 281 281 277 276 275 273 272 274 276 279
257 258 258 258 259 260 262 264 266 267 269 271 273 274 275 277 279 280 281 282 283 284 284 283 283 282 282 282 282 283 283 276 275 274 273 274 275 276
254 253 255 256 258 260 263 264 265 268 271 273 273 275 278 279 280 281 282 283 285 286 287 287 286 286 285 286 286 287 286 285 284 283 281 282 281 279
251 249 250 253 255 257 257 259 263 266 267 270 273 275 276 278 280 282 284 287 288 287 287 289 290 291 291 291 290 291 290 288 288 290 286 282 280 277
253 250 249 251 252 252 255 257 260 262 264 268 271 274 277 279 282 282 283 284 286 290 292 292 291 290 291 293 296 294 291 289 287 287 287 285 279 279
255 252 250 248 248 248 250 252 255 259 262 265 269 271 273 275 278 280 282 284 286 288 289 289 291 293 291 289 289 290 287 285 286 286 285 285 288 284
256 256 250 247 245 245 248 251 253 257 260 263 267 270 273 276 277 278 280 281 283 285 287 288 290 291 292 294 293 291 289 287 284 284 282 282 285 290
255 256 250 244 242 244 246 249 252 255 259 263 266 270 273 275 277 279 281 282 282 283 285 287 287 289 290 291 293 294 289 289 292 291 287 286 285 287
253 255 244 240 241 242 244 247 250 254 257 261 266 269 272 275 277 278 279 281 284 285 287 288 289 290 290 291 291 292 289 282 290 295 295 295 299 298
251 244 246 239 239 241 243 246 249 252 256 261 265 269 272 274 276 278 280 282 284 286 286 286 288 290 292 293 293 291 291 285 279 282 292 298 304 309